AC5JC-1 Weather Reports


Display with metric or nautical units.
time (UTC)temp
F
wind
direction
speed
MPH
gust
MPH
rain 1hr
in
rain 24hr
in
rain mn
in
humidity
%
barometer
mb
20260508181035 73 111 1.0 2.0 0.00 0.18 0.18 71 1012.2
20260508180535 73 158 2.0 5.0 0.00 0.18 0.18 71 1012.4
20260508180035 73 129 2.0 3.0 0.00 0.18 0.18 71 1012.5
20260508175528 74 136 1.0 3.0 0.00 0.18 0.18 71 1012.5
20260508175111 75 120 2.0 3.0 0.00 0.18 0.18 71 1012.6
20260508174551 74 164 2.0 3.0 0.00 0.18 0.18 72 1012.6
20260508174035 74 156 2.0 3.0 0.00 0.18 0.18 72 1012.8
20260508173535 74 132 1.0 3.0 0.00 0.18 0.18 73 1012.8
20260508173035 73 154 2.0 2.0 0.00 0.18 0.18 75 1012.8
20260508172555 73 127 1.0 2.0 0.00 0.18 0.18 75 1012.7
20260508172035 73 97 1.0 2.0 0.00 0.18 0.18 75 1012.8
20260508171536 73 130 2.0 3.0 0.00 0.18 0.18 75 1012.9
20260508171035 74 121 1.0 2.0 0.00 0.18 0.18 74 1013.0
20260508170535 73 138 1.0 3.0 0.00 0.18 0.18 76 1013.0
20260508170119 72 136 1.0 2.0 0.00 0.18 0.18 76 1013.2
20260508165559 72 123 1.0 2.0 0.00 0.18 0.18 76 1013.3
20260508165100 72 111 1.0 2.0 0.00 0.18 0.18 78 1013.4
20260508164536 72 112 1.0 3.0 0.00 0.18 0.18 79 1013.4
20260508164035 71 128 1.0 2.0 0.00 0.18 0.18 78 1013.5
20260508163615 71 119 2.0 3.0 0.00 0.18 0.18 79 1013.7
20260508163025 70 110 1.0 1.0 0.00 0.18 0.18 81 1013.8
20260508162607 70 102 1.0 3.0 0.00 0.18 0.18 80 1013.9
20260508162047 70 141 1.0 2.0 0.00 0.18 0.18 82 1013.9
20260508161535 70 110 1.0 1.0 0.00 0.18 0.18 82 1013.8
20260508161055 70 143 1.0 2.0 0.00 0.18 0.18 82 1013.9
20260508160535 69 129 2.0 3.0 0.00 0.18 0.18 81 1014.0
20260508160032 68 109 1.0 2.0 0.00 0.18 0.18 84 1013.8
20260508155615 66 95 0.0 1.0 0.00 0.18 0.18 87 1014.0
20260508155055 66 104 0.0 1.0 0.00 0.18 0.18 87 1014.0
20260508154536 66 96 0.0 1.0 0.00 0.18 0.18 87 1014.1
20260508154035 66 97 1.0 1.0 0.00 0.18 0.18 87 1014.2
20260508153535 65 87 0.0 1.0 0.00 0.18 0.18 90 1014.2
20260508153025 64 0.0 0.0 0.00 0.18 0.18 90 1014.3
20260508152607 64 108 0.0 1.0 0.00 0.18 0.18 89 1014.4
20260508152047 64 116 1.0 2.0 0.01 0.18 0.18 90 1014.5
20260508151535 63 112 0.0 1.0 0.02 0.18 0.18 93 1014.5
20260508151035 62 134 0.0 1.0 0.02 0.18 0.18 94 1014.5
20260508150535 62 99 1.0 2.0 0.02 0.18 0.18 95 1014.6
20260508150033 62 0.0 0.0 0.02 0.18 0.18 97 1014.6
20260508145615 62 0.0 0.0 0.02 0.18 0.18 97 1014.6
20260508145055 62 0.0 0.0 0.02 0.18 0.18 98 1014.6
20260508144556 62 0.0 0.0 0.02 0.18 0.18 99 1014.9
20260508144035 61 0.0 0.0 0.02 0.18 0.18 99 1014.8
20260508143535 60 0.0 0.0 0.02 0.18 0.18 99 1014.9
20260508143036 60 86 0.0 1.0 0.02 0.18 0.18 98 1015.1
20260508142555 60 107 0.0 1.0 0.02 0.18 0.18 98 1015.2
20260508142035 60 129 0.0 2.0 0.01 0.17 0.17 99 1015.3
20260508141536 60 0.0 0.0 0.00 0.16 0.16 99 1015.1
20260508141035 60 0.0 0.0 0.00 0.16 0.16 99 1014.8
20260508140535 60 0.0 0.0 0.00 0.16 0.16 99 1014.8
20260508140056 60 0.0 0.0 0.00 0.16 0.16 99 1014.8
20260508135535 60 0.0 0.0 0.00 0.16 0.16 99 1014.6
20260508135035 60 0.0 0.0 0.00 0.16 0.16 99 1015.0
20260508134536 59 0.0 0.0 0.00 0.16 0.16 99 1014.9
20260508134035 60 116 0.0 1.0 0.00 0.16 0.16 99 1014.9
20260508133535 60 99 0.0 1.0 0.00 0.16 0.16 99 1015.0
20260508133036 60 0.0 0.0 0.00 0.16 0.16 99 1015.1
20260508132535 59 108 0.0 1.0 0.00 0.16 0.16 99 1015.1
20260508132035 59 0.0 0.0 0.00 0.16 0.16 99 1015.0
20260508131536 59 0.0 0.0 0.00 0.16 0.16 99 1014.8
20260508131035 59 103 0.0 1.0 0.00 0.16 0.16 99 1014.8
20260508130535 59 113 0.0 1.0 0.00 0.16 0.16 99 1015.0
20260508130035 59 119 0.0 1.0 0.00 0.16 0.16 99 1014.8
20260508125528 59 107 0.0 1.0 0.00 0.16 0.16 99 1014.8
20260508125111 59 0.0 0.0 0.00 0.16 0.16 99 1014.7
20260508124552 59 140 0.0 2.0 0.00 0.16 0.16 99 1014.9
20260508124035 59 118 0.0 1.0 0.00 0.16 0.16 99 1014.8
20260508123535 59 119 0.0 1.0 0.00 0.16 0.16 99 1015.0
20260508123036 59 91 0.0 1.0 0.00 0.16 0.16 99 1014.8
20260508122536 59 0.0 0.0 0.00 0.16 0.16 99 1014.9
20260508122055 59 0.0 0.0 0.00 0.16 0.16 99 1015.0
20260508121556 59 0.0 0.0 0.00 0.16 0.16 99 1014.9
20260508121036 59 72 0.0 1.0 0.00 0.16 0.16 99 1015.0
20260508120535 59 0.0 0.0 0.00 0.16 0.16 99 1015.0
20260508120036 59 0.0 0.0 0.00 0.16 0.16 99 1015.0
20260508115536 59 0.0 0.0 0.00 0.16 0.16 99 1015.2
20260508115024 59 79 0.0 1.0 0.00 0.16 0.16 99 1015.1
20260508114607 59 0.0 0.0 0.00 0.16 0.16 99 1015.3
20260508114047 59 0.0 0.0 0.00 0.16 0.16 99 1015.3
20260508113535 59 0.0 0.0 0.00 0.16 0.16 99 1015.2
20260508113036 59 0.0 0.0 0.00 0.16 0.16 99 1015.0
20260508112555 59 0.0 0.0 0.00 0.16 0.16 99 1014.7
20260508112119 59 0.0 0.0 0.00 0.16 0.16 99 1014.8
20260508111559 59 0.0 0.0 0.00 0.16 0.16 99 1014.8
20260508111040 59 0.0 0.0 0.00 0.16 0.16 99 1014.8
20260508110535 59 0.0 0.0 0.00 0.16 0.16 99 1014.8
20260508110055 58 0.0 0.0 0.00 0.16 0.16 99 1014.8
20260508105535 58 0.0 0.0 0.00 0.16 0.16 99 1014.7
20260508105035 58 0.0 0.0 0.00 0.16 0.16 99 1014.8
20260508104536 58 0.0 0.0 0.00 0.16 0.16 99 1014.6
20260508104119 58 0.0 0.0 0.00 0.16 0.16 99 1014.7
20260508103600 58 0.0 0.0 0.00 0.16 0.16 99 1014.6
20260508103036 58 0.0 0.0 0.04 0.16 0.16 99 1014.6
20260508102535 58 0.0 0.0 0.04 0.16 0.16 99 1014.6
20260508102032 58 0.0 0.0 0.04 0.16 0.16 99 1014.7
20260508101615 58 0.0 0.0 0.04 0.16 0.16 99 1014.6
20260508101055 58 0.0 0.0 0.04 0.16 0.16 99 1014.5
20260508100555 58 82 0.0 1.0 0.04 0.16 0.16 99 1014.7
20260508100035 59 96 0.0 1.0 0.04 0.16 0.16 99 1014.9
20260508095535 59 0.0 0.0 0.04 0.16 0.16 99 1014.8
20260508095035 59 0.0 0.0 0.04 0.16 0.16 99 1014.7
20260508094535 58 0.0 0.0 0.04 0.16 0.16 99 1014.6
20260508094035 58 73 1.0 1.0 0.04 0.16 0.16 99 1014.5
20260508093548 59 0.0 0.0 0.04 0.16 0.16 99 1014.7
20260508093111 59 0.0 0.0 0.00 0.12 0.12 99 1014.7
20260508092632 58 0.0 0.0 0.00 0.12 0.12 99 1014.4
20260508092032 58 0.0 0.0 0.00 0.12 0.12 99 1014.3
20260508091616 58 0.0 0.0 0.00 0.12 0.12 99 1014.3
20260508091056 58 0.0 0.0 0.00 0.12 0.12 99 1014.3
20260508090536 58 0.0 0.0 0.00 0.12 0.12 99 1014.5
20260508090036 58 0.0 0.0 0.00 0.12 0.12 99 1014.4
20260508085535 59 0.0 0.0 0.00 0.12 0.12 99 1014.6
20260508085035 59 0.0 0.0 0.00 0.12 0.12 99 1014.7
20260508084535 59 0.0 0.0 0.00 0.12 0.12 99 1014.8
20260508084120 59 0.0 0.0 0.00 0.12 0.12 99 1014.8
20260508083543 59 0.0 0.0 0.00 0.12 0.12 99 1014.7
20260508083035 59 0.0 0.0 0.01 0.12 0.12 99 1014.9
20260508082535 59 0.0 0.0 0.02 0.12 0.12 99 1015.0
20260508082035 59 0.0 0.0 0.03 0.12 0.12 99 1015.1
20260508081529 59 0.0 0.0 0.05 0.12 0.12 99 1015.0
20260508081111 59 0.0 0.0 0.06 0.12 0.12 99 1015.0
20260508080632 59 92 0.0 1.0 0.10 0.12 0.12 99 1015.2
20260508080036 59 0.0 0.0 0.12 0.12 0.12 98 1015.2
20260508075548 59 69 1.0 2.0 0.12 0.12 0.12 98 1015.2
20260508075112 59 84 0.0 1.0 0.12 0.12 0.12 98 1015.4
20260508074552 59 90 0.0 1.0 0.12 0.12 0.12 98 1015.4
20260508074035 59 0.0 0.0 0.12 0.12 0.12 97 1015.3
20260508073535 59 92 0.0 1.0 0.12 0.12 0.12 97 1015.2
20260508073036 59 65 1.0 2.0 0.11 0.11 0.11 97 1015.2
20260508072535 59 73 1.0 1.0 0.10 0.10 0.10 96 1015.3
20260508072035 59 94 1.0 1.0 0.09 0.09 0.09 96 1015.3
20260508071556 60 118 1.0 2.0 0.07 0.07 0.07 95 1015.7
20260508071035 61 110 1.0 1.0 0.06 0.06 0.06 92 1016.0
20260508070552 61 96 1.0 2.0 0.02 0.02 0.02 89 1016.1
20260508070035 61 109 0.0 1.0 0.00 0.00 0.00 87 1016.6
20260508065535 61 108 0.0 1.0 0.00 0.00 0.00 87 1016.4
20260508065024 61 0.0 0.0 0.00 0.00 0.00 87 1016.4
20260508064608 61 0.0 0.0 0.00 0.00 0.00 87 1016.2
20260508064047 61 0.0 0.0 0.00 0.00 0.00 86 1015.9
20260508063535 61 108 0.0 1.0 0.00 0.00 0.00 85 1015.9
20260508063035 61 0.0 0.0 0.00 0.00 0.00 85 1016.1
20260508062535 61 0.0 0.0 0.00 0.00 0.00 84 1016.1
20260508062035 61 0.0 0.0 0.00 0.00 0.00 85 1016.2
20260508061535 61 0.0 0.0 0.00 0.00 0.00 85 1016.3
20260508061035 61 0.0 0.0 0.00 0.00 0.00 85 1016.4
20260508060534 61 0.0 0.0 0.00 0.00 0.00 84 1016.3
20260508060034 60 0.0 0.0 0.00 0.00 0.00 85 1016.3
20260508055535 60 0.0 0.0 0.00 0.00 0.00 86 1016.4
20260508055035 60 0.0 0.0 0.00 0.00 0.00 86 1016.3
20260508054535 60 0.0 0.0 0.00 0.00 0.00 87 1016.4
20260508054034 60 0.0 0.0 0.00 0.00 0.00 87 1016.5
20260508053554 60 0.0 0.0 0.00 0.00 0.00 86 1016.5
20260508053034 60 0.0 0.0 0.00 0.00 0.00 86 1016.4
20260508052554 60 0.0 0.0 0.00 0.00 0.00 86 1016.3
20260508052034 60 0.0 0.0 0.00 0.00 0.00 85 1016.1
20260508051529 60 0.0 0.0 0.00 0.00 0.00 86 1016.1
20260508051112 60 0.0 0.0 0.00 0.00 0.00 85 1016.0
20260508050552 60 0.0 0.0 0.00 0.00 0.00 85 1016.0
20260508050115 60 0.0 0.0 0.00 0.00 0.00 85 1016.2
20260508045657 60 0.0 0.0 0.00 0.00 0.00 85 1016.5
20260508045116 60 0.0 0.0 0.00 0.00 0.00 84 1016.3
20260508044535 60 0.0 0.0 0.00 0.00 0.00 85 1016.2
20260508044120 60 0.0 0.0 0.00 0.00 0.00 84 1016.3
20260508043620 60 0.0 0.0 0.00 0.00 0.00 83 1016.3
20260508043120 60 0.0 0.0 0.00 0.00 0.00 83 1016.4
20260508042520 60 0.0 0.0 0.00 0.00 0.00 83 1016.4
20260508042104 60 0.0 0.0 0.00 0.00 0.00 83 1016.3
20260508041543 61 0.0 0.0 0.00 0.00 0.00 83 1016.2
20260508041024 61 0.0 0.0 0.00 0.00 0.00 83 1016.3
20260508040608 60 0.0 0.0 0.00 0.00 0.00 83 1016.4
20260508040049 61 0.0 0.0 0.00 0.00 0.00 83 1016.3
20260508035528 61 0.0 0.0 0.00 0.00 0.00 82 1016.3
20260508035132 61 0.0 0.0 0.00 0.00 0.00 82 1016.1
20260508034612 61 0.0 0.0 0.00 0.00 0.00 82 1016.2
20260508034034 61 0.0 0.0 0.00 0.00 0.00 82 1016.1
20260508033534 61 0.0 0.0 0.00 0.00 0.00 82 1016.2
20260508033034 61 0.0 0.0 0.00 0.00 0.00 81 1016.0
20260508032534 61 0.0 0.0 0.00 0.00 0.00 82 1016.0
20260508032055 61 0.0 0.0 0.00 0.00 0.00 82 1016.1
20260508031555 61 0.0 0.0 0.00 0.00 0.00 81 1016.0
20260508031035 61 0.0 0.0 0.00 0.00 0.00 80 1016.0
20260508030534 61 108 0.0 1.0 0.00 0.00 0.00 81 1015.8
20260508030055 61 0.0 0.0 0.00 0.00 0.00 82 1015.9
20260508025535 61 109 0.0 1.0 0.00 0.00 0.00 80 1015.7
20260508025034 61 0.0 0.0 0.00 0.00 0.00 81 1015.7
20260508024556 61 0.0 0.0 0.00 0.00 0.00 81 1015.6
20260508024054 61 0.0 0.0 0.00 0.00 0.00 81 1015.6
20260508023534 61 0.0 0.0 0.00 0.00 0.00 80 1015.4
20260508023035 62 0.0 0.0 0.00 0.00 0.00 78 1015.4
20260508022534 62 0.0 0.0 0.00 0.00 0.00 78 1015.4
20260508022119 62 0.0 0.0 0.00 0.00 0.00 78 1015.4
20260508021640 62 0.0 0.0 0.00 0.00 0.00 78 1015.4
20260508021035 62 0.0 0.0 0.00 0.00 0.00 78 1015.3
20260508020554 62 0.0 0.0 0.00 0.00 0.00 77 1015.2
20260508020035 62 0.0 0.0 0.00 0.00 0.00 77 1015.2
20260508015534 63 0.0 0.0 0.00 0.00 0.00 76 1015.2
20260508015035 63 0.0 0.0 0.00 0.00 0.00 75 1015.2
20260508014615 63 0.0 0.0 0.00 0.00 0.00 73 1015.1
20260508014034 64 0.0 0.0 0.00 0.00 0.00 73 1015.2
20260508013534 64 0.0 0.0 0.00 0.00 0.00 73 1015.1
20260508013034 64 0.0 0.0 0.00 0.00 0.00 72 1015.2
20260508012521 64 0.0 0.0 0.00 0.00 0.00 71 1015.2
20260508012104 65 0.0 0.0 0.00 0.00 0.00 71 1015.2
20260508011544 65 0.0 0.0 0.00 0.00 0.00 69 1015.1
20260508011054 65 0.0 0.0 0.00 0.00 0.00 69 1015.2
20260508010555 66 0.0 0.0 0.00 0.00 0.00 69 1015.1
20260508010035 66 0.0 0.0 0.00 0.00 0.00 68 1015.2
20260508005534 66 0.0 0.0 0.00 0.00 0.00 68 1015.2
20260508005024 67 109 0.0 1.0 0.00 0.00 0.00 67 1015.2
20260508004608 67 0.0 0.0 0.00 0.00 0.00 67 1015.1
20260508004048 67 0.0 0.0 0.00 0.00 0.00 66 1015.0
20260508003534 67 108 0.0 1.0 0.00 0.00 0.00 65 1015.2
20260508003055 68 0.0 0.0 0.00 0.00 0.00 66 1015.0
20260508002535 68 0.0 0.0 0.00 0.00 0.00 65 1015.1
20260508002032 68 114 0.0 1.0 0.00 0.00 0.00 63 1015.2
20260508001636 69 106 0.0 1.0 0.00 0.00 0.00 63 1015.3
20260508001136 69 93 0.0 1.0 0.00 0.00 0.00 62 1015.3
20260508000534 69 116 1.0 2.0 0.00 0.00 0.00 62 1015.2
20260508000035 70 110 0.0 1.0 0.00 0.00 0.00 61 1015.3
20260507235534 71 101 0.0 1.0 0.00 0.00 0.00 60 1015.4
20260507235034 71 116 0.0 1.0 0.00 0.00 0.00 60 1015.5
20260507234521 71 108 0.0 1.0 0.00 0.00 0.00 60 1015.4
20260507234104 72 112 1.0 1.0 0.00 0.00 0.00 58 1015.4
20260507233535 73 111 1.0 2.0 0.00 0.00 0.00 56 1015.4
20260507233035 73 109 0.0 1.0 0.00 0.00 0.00 54 1015.3
20260507232522 74 94 0.0 1.0 0.00 0.00 0.00 54 1015.4
20260507232104 75 82 1.0 2.0 0.00 0.00 0.00 52 1015.4
20260507231545 75 110 1.0 1.0 0.00 0.00 0.00 51 1015.4
20260507231034 75 92 0.0 2.0 0.00 0.00 0.00 53 1015.4
20260507230534 74 88 0.0 1.0 0.00 0.00 0.00 55 1015.5
20260507230035 73 139 0.0 1.0 0.00 0.00 0.00 55 1015.6
20260507225555 73 141 0.0 1.0 0.00 0.00 0.00 54 1015.6
20260507225034 74 71 0.0 1.0 0.00 0.00 0.00 53 1015.6
20260507224520 74 85 0.0 1.0 0.00 0.00 0.00 53 1015.8
20260507224104 73 71 0.0 2.0 0.00 0.00 0.00 53 1015.6
20260507223544 72 77 1.0 3.0 0.00 0.00 0.00 53 1015.7
20260507223035 72 79 0.0 1.0 0.00 0.00 0.00 54 1015.6
20260507222534 72 67 1.0 2.0 0.00 0.00 0.00 53 1015.8
20260507222054 73 86 0.0 1.0 0.00 0.00 0.00 54 1015.9
20260507221535 73 0.0 0.0 0.00 0.00 0.00 54 1015.8
20260507221034 73 81 1.0 1.0 0.00 0.00 0.00 51 1015.8
20260507220554 73 69 1.0 2.0 0.00 0.00 0.00 54 1015.9
20260507220120 72 0.0 0.0 0.00 0.00 0.00 54 1016.0
20260507215600 72 78 0.0 1.0 0.00 0.00 0.00 55 1015.9
20260507215035 72 64 1.0 3.0 0.00 0.00 0.00 53 1015.9
20260507214534 73 136 0.0 2.0 0.00 0.00 0.00 54 1016.1
20260507214141 73 105 0.0 1.0 0.00 0.00 0.00 55 1016.2
20260507213600 73 111 0.0 1.0 0.00 0.00 0.00 52 1016.2
20260507213034 73 111 0.0 1.0 0.00 0.00 0.00 53 1016.2
20260507212535 73 0.0 0.0 0.00 0.00 0.00 55 1016.3
20260507212055 73 86 0.0 1.0 0.00 0.00 0.00 52 1016.2
20260507211534 73 74 1.0 1.0 0.00 0.00 0.00 52 1016.5
20260507211034 73 39 1.0 1.0 0.00 0.00 0.00 51 1016.6
20260507210534 73 94 1.0 3.0 0.00 0.00 0.00 51 1016.7
20260507210055 74 60 1.0 5.0 0.00 0.00 0.00 52 1016.7
20260507205554 75 72 1.0 2.0 0.00 0.00 0.00 51 1016.6
20260507205025 75 74 1.0 2.0 0.00 0.00 0.00 49 1016.6
20260507204608 74 56 1.0 2.0 0.00 0.00 0.00 50 1016.5
20260507204048 74 63 1.0 2.0 0.00 0.00 0.00 51 1016.4
20260507203534 74 69 3.0 6.0 0.00 0.00 0.00 51 1016.4
20260507203035 74 38 1.0 2.0 0.00 0.00 0.00 52 1016.4
20260507202535 74 55 1.0 3.0 0.00 0.00 0.00 51 1016.5
20260507202114 74 52 2.0 3.0 0.00 0.00 0.00 51 1016.7
20260507201535 74 73 1.0 2.0 0.00 0.00 0.00 51 1016.8
20260507201034 74 102 1.0 3.0 0.00 0.00 0.00 51 1016.8
20260507200534 74 40 1.0 3.0 0.00 0.00 0.00 51 1016.8
20260507200034 74 63 1.0 2.0 0.00 0.00 0.00 50 1016.9
20260507195534 73 15 1.0 2.0 0.00 0.00 0.00 51 1017.1
20260507195034 73 44 3.0 5.0 0.00 0.00 0.00 51 1017.1
20260507194534 74 82 3.0 8.0 0.00 0.00 0.00 51 1017.3
20260507194033 74 76 1.0 2.0 0.00 0.00 0.00 52 1017.2
20260507193534 73 78 0.0 1.0 0.00 0.00 0.00 51 1017.2
20260507193046 73 64 2.0 5.0 0.00 0.00 0.00 51 1017.5
20260507192608 74 36 3.0 5.0 0.00 0.00 0.00 51 1017.6
20260507192114 73 44 1.0 3.0 0.00 0.00 0.00 52 1017.4
20260507191535 72 72 2.0 2.0 0.00 0.00 0.00 52 1017.7
20260507191034 73 64 2.0 5.0 0.00 0.00 0.00 53 1017.8
20260507190634 73 145 1.0 2.0 0.00 0.00 0.00 53 1017.8
20260507190033 72 35 2.0 5.0 0.00 0.00 0.00 53 1017.9
20260507185600 72 69 2.0 7.0 0.00 0.00 0.00 52 1017.9
20260507185025 72 69 1.0 5.0 0.00 0.00 0.00 51 1017.9
20260507184537 71 42 2.0 5.0 0.00 0.00 0.00 54 1017.9
20260507184034 71 75 3.0 6.0 0.00 0.00 0.00 51 1017.8
20260507183600 71 47 3.0 7.0 0.00 0.00 0.00 52 1017.9
20260507183026 71 50 2.0 5.0 0.00 0.00 0.00 53 1018.0
20260507182552 71 35 3.0 6.0 0.00 0.00 0.00 53 1018.0
20260507182104 71 38 2.0 5.0 0.00 0.00 0.00 54 1018.1
20260507181546 70 54 3.0 6.0 0.00 0.00 0.00 54 1018.2